Regional Weather Roundup
Issued by NWS Wakefield, VA

Home | Current Version | Previous Version | Graphics & Text | Print | Product List | Glossary On
Versions: 1 2 3 4 5 6 7 8 9 10 11 12 13 14 15 16 17 18 19 20 21 22 23 24 25 26 27 28 29 30 31 32 33 34 35 36 37 38 39 40 41 42 43 44 45 46 47 48 49 50
000
ASUS41 KAKQ 240215
RWRAKQ

REGIONAL WEATHER ROUNDUP
NATIONAL WEATHER SERVICE WAKEFIELD VA
1000 PM EDT THU MAR 23 2017

Note: "fair" indicates few or no clouds below 12,000 feet with no
significant weather and/or obstructions to visibility. * = Denotes
station may not report precipitation (e.g., rain,snow,etc.),
thunder or fog.

VAZ042-051-052>054-056-240300-
NORTHERN VIRGINIA

CITY           SKY/WX    TMP DP  RH WIND       PRES   REMARKS
WASH NATIONAL  PTCLDY    42  19  39 S9        30.54R
DULLES         CLEAR     40  14  34 S8        30.51R
FORT BELVOIR   CLEAR     40  18  42 SE7       30.53R
QUANTICO       CLEAR     41  26  55 S14       30.55R
FREDERICKSBRG* CLEAR     39  24  54 SE7       30.52S
STAFFORD*      CLEAR     36  20  52 SE3       30.57R
WARRENTON      CLEAR     38  15  38 SE6       30.49F
CULPEPER*      CLEAR     36  19  49 S3        30.51S
MANASSAS*      CLEAR     38  18  44 SE8       30.52R
LEESBURG*      CLEAR     43  18  36 S8        30.51R
WINCHESTER     CLEAR     37  14  38 CALM      30.46R
FRONT ROYAL*     N/A    N/A N/A N/A MISG        N/A
LURAY*         CLEAR     41  21  45 SW7       30.45S
$$

VAZ048-049-060>072-079>083-240300-
CENTRAL AND SOUTH CENTRAL VIRGINIA

CITY           SKY/WX    TMP DP  RH WIND       PRES   REMARKS
RICHMOND       CLEAR     39  21  48 SE7       30.55R
CHESTERFIELD*  FAIR      39  10  30 SE7       30.56R
PETERSBURG*    CLEAR     30  24  77 CALM      30.56R
HANOVER        CLEAR     40  17  39 SE5       30.56R
TAPPAHANNOCK*  CLEAR     35   2  25 SE3       30.57R
QUINTON*       FAIR      39  21  48 SE3       30.55R
CHARLOTTSVILLE CLEAR     41  18  39 S9        30.49R
GORDONSVILLE*  CLEAR     33  22  65 CALM      30.50R
ORANGE*        CLEAR     34  21  60 CALM      30.51S
LOUISA*        CLEAR     43  19  39 S5        30.49S
BUMPASS*       FAIR      39  13  35 SE3       30.52R
FARMVILLE*     CLEAR     41  22  48 CALM      30.50S
CREWE*         FAIR      34  25  69 CALM      30.52S
FORT PICKETT*  FAIR      36  16  44 SE5       30.53S
CHASE CITY*    FAIR      40  18  40 SE5       30.52R
CLARKSVILLE*   FAIR      41  25  52 SE3       30.52R
SOUTH HILL*    CLEAR     35  24  63 CALM      30.59R
LAWRENCEVILLE* FAIR      37  23  55 CALM      30.54S
EMPORIA*       CLEAR     36  23  60 E5        30.58R
$$

VAZ088>098-240300-
SOUTHEAST VIRGINIA

CITY           SKY/WX    TMP DP  RH WIND       PRES   REMARKS
NORFOLK        CLEAR     36  23  59 S3        30.58S
VIRGINIA BEACH CLEAR     35  21  56 SE5       30.59R
NORFOLK NAVAL  CLEAR     36  21  54 S6        30.60R
WEST POINT*    CLEAR     35  19  53 SE6       30.59R
SALUDA*        FAIR      33  24  69 S5        30.57R
NEWPORT NEWS   CLEAR     36  25  64 S6        30.58R
LANGLEY AFB    CLEAR     37  23  57 S7        30.58R
FORT EUSTIS    CLEAR     35  22  58 SE7       30.55R
WILLIAMSBURG*  CLEAR     39  27  60 CALM      30.58S
HR EXEC AP*    FAIR      34  19  55 S6        30.59R
FRANKLIN*      CLEAR     37  24  58 SE5       30.59S
US460-WAKEFLD  CLEAR     36  19  50 CALM      30.57R
$$

VAZ020-022-025-037-045-240300-
WEST CENTRAL AND SOUTHWEST VIRGINIA

CITY           SKY/WX    TMP DP  RH WIND       PRES   REMARKS
STAUNTON*      CLEAR     40  17  39 SW5       30.48R
WAYNESBORO*    CLEAR     38  18  44 S3        30.46R
HOT SPRINGS VA CLEAR     34   9  35 S12       30.40S
LYNCHBURG      CLEAR     38  21  50 CALM      30.51R
DANVILLE       CLEAR     45  22  40 VRB3      30.51R
SOUTH BOSTON*  FAIR      41  20  42 CALM      30.52R
MARTINSVILLE   CLEAR     38  20  48 CALM      30.50S
ROANOKE        CLEAR     43  18  36 SE8       30.49R
BLACKSBURG     CLEAR     42  20  41 SE3       30.48R
DUBLIN*        CLEAR     42  23  46 CALM      30.45S
MARION*        CLEAR     45  23  42 E7        30.43R
HILLSVILLE*    CLEAR     42  22  44 S5        30.42S
RICHLANDS*     FAIR      49  23  36 CALM      30.36R
WISE*          CLEAR     54  28  37 CALM      30.35S
ABINGDON*      CLEAR     54  23  29 CALM      30.37R
$$

MDZ021>025-VAZ099-100-240300-
SOUTHERN MARYLAND AND THE DELMARVA PENINSULA

CITY           SKY/WX    TMP DP  RH WIND       PRES   REMARKS
PATUXENT RIVER CLEAR     35  16  45 S7        30.56R
BAY BRIDGE APT CLEAR     39  21  48 S9        30.55R
LEONARDTOWN    CLEAR     34  18  51 CALM      30.57S
DOVER          CLEAR     32  23  70 S8        30.56R
GEORGETOWN     CLEAR     32  22  66 S6        30.58R
EASTON         NOT AVBL
CAMBRIDGE      CLOUDY    32  21  64 CALM      30.57R
SALISBURY      CLEAR     29  23  78 E6        30.56F
OCEAN CITY     CLEAR     36  26  67 S5        30.59S
WALLOPS ISLAND CLEAR     32  25  75 S3        30.59S
ACCOMACK*      CLEAR     32  26  77 SE5       30.58S
$$

NCZ012>017-030>032-240300-
NORTH CENTRAL AND EASTERN NORTH CAROLINA

CITY           SKY/WX    TMP DP  RH WIND       PRES   REMARKS
ROANOKE RAPIDS FAIR      39  27  60 SE5       30.56R
RALEIGH        CLEAR     46  20  35 SE6       30.53R
ELIZABETH CITY CLEAR     34  27  75 MISG      30.61R
AHOSKIE*         N/A     37  28  67 CALM      30.59R
EDENTON*       CLEAR     39  29  67 E8        30.60R
CURRITUCK*     CLEAR     36  27  70 CALM      30.61R
KILL DEVIL HLS NOT AVBL
MANTEO         CLEAR     34  27  73 E3        30.61S
CAPE HATTERAS  CLEAR     39  29  67 E3        30.59S
TARBORO*       NOT AVBL
GOLDSBORO      CLEAR     43  27  53 SE7       30.54R
WASHINGTON     NOT AVBL
GREENVILLE     CLEAR     43  28  56 SE5       30.57R
NEW BERN       CLEAR     42  35  76 E6        30.59R
WILMINGTON     CLEAR     46  32  58 E6        30.55S
$$

VAZ048-240300-
ELSEWHERE

CITY           SKY/WX    TMP DP  RH WIND       PRES   REMARKS
HARRISBURG PA  PTCLDY    33  20  58 SE6       30.51R
BALTIMORE      CLEAR     36  21  54 E3        30.54R
ANNAPOLIS      CLEAR     41  24  51 SE8       30.55R
ANDREWS AFB    CLEAR     35  20  54 S9        30.53R
PHILADELPHIA   CLEAR     38  15  39 S5        30.59R
HENDERSON NC   CLEAR     41  17  37 S3        30.53R
GREENSBORO     CLEAR     45  23  42 S8        30.48R
ROCKY MOUNT    CLEAR     40  27  59 CALM      30.56R
$$

VAZ100-240300-
MARINE

STATION/POSITION TIME  TEMP    WIND        PRES    WAVE   SWELL
                       AIR SEA DIR/SP/G            HT/PER HT/PER
                 (UTC) (F)     (DEG/KT/KT) (MB)    (FT/S) (FT/S)
CAPE MAY NJ      0148   36 43  190/  6/  9 1035.3R
LEWES DE         0148   35 43  190/  4/  6 1035.4R
OCEAN-CITY-INLET 0148   38 43  210/ 10/ 12 1036.2R
WACHAPREAGUE VA  0148   38 48  190/  8/  9 1035.4F
THOMAS POINT MD  0200   41 43  160/ 17/ 18   N/A
GOOSES REEF MD   0200   41 43  180/ 14/ 17 1035.0    2/ 3
COVE POINT MD    0148   39     210/ 11/ 17 1035.3R
SOLOMONS ISLAND  0148   38 45  190/  6/  7   N/A
BISHOPS HEAD MD  0148   40 46  180/ 10/ 12 1035.1F
PINEY POINT MD   0148          180/ 10/ 12   N/A
POTOMAC MD       0200   41 45  180/ 10/ 12 1034.4    1/ 2
CAMBRIDGE MD     0148   36 44  170/  4/  6 1034.3R
LEWISETTA VA     0148   38 48  180/  7/  9 1034.9R
RAPPAHANNOCK LGT 0148          140/ 10/ 10 1035.9S
STINGRAY PT      0200   39 47  180/ 12/ 14 1035.3    1/ 2
YORK RVR RNG VA  0148   40     160/ 13/ 14 1034.6R
YORKTOWN VA      0148   39 48  160/  7/  9 1035.1R
JAMESTOWN VA     0200   40 50  120/ 10/ 12   N/A
DOMINION TERM VA 0148   39     150/ 11/ 12 1035.7R
KIPTOPEKE VA     0148      47  150/  7/  8   N/A
CHES BAY BRIDGE  0148   39 47  150/  6/ 12 1035.7S
CAPE HENRY VA    0148   38     130/  8/ 12   N/A
WILLOUBY STN VA  0148   37     160/ 11/ 12 1036.5R
S CRANEY ISL VA  0148   39     150/ 11/ 15 1035.6R
CAPE HENRY BUOY  0142      45                N/A     3/ 7
CAPE CHARLES BUO 0151      45                N/A     2/ 9
OFFSHORE WE BUOY 0151      45                N/A     3/ 7
64NM E OF VA BCH 0150   41 49   70/  6/  6 1036.3R   4/ 8   3/ 8
DUCK PIER NC     0148   39 48  100/  6/  9 1035.9R
44100 DUCK FRF   0135      47                N/A     4/ 7   2/11
44056 DUCK FRF   0130      47                N/A     4/ 8
OREGON INLET NC  0148           50/  7/  9 1036.1F
HATTERAS NC      0148   41 52   60/  6/  9 1035.4R
DIAMOND SHLS NC  0150   50 72   40/  8/ 14 1035.5R   9/11  10/11
CAPE LOOKOUT NC  0200   48      40/ 13/ 15 1034.6F
$$



USA.gov is the U.S. government's official web portal to all federal, state and local government web resources and services.